COSMOS 2251 DEB, 34571

Orbit data source: Space-Track

COSMOS 2251 DEB, 34571 is space debris in LEO originally from a launch on Wed, 16 Jun 1993 UTC launched from the Plesetsk Missile And Space Complex (PKMTR). The debris from Iridium 33, an American commercial communications satellite, has been tracked extensively since its accidental collision with the defunct Russian satellite Cosmos 2251 in 2009. This event, occurring at high speed in low Earth orbit (LEO), generated thousands of pieces of space debris, significantly increasing the risk of further collisions. The Iridium 33 debris cloud has impacted space traffic management and orbital debris mitigation strategies, making it a subject of ongoing study in space situational awareness.

Loading next visibility...
Identifier
34571, 1993-036VH
Orbit
LEO
Country
Flag of CISCIS
Related business
Manufacturer
Unknown
Mission
Spacecraft
Bus & Motor
Unknown
Mass
Unknown
Launch date (UTC)
1993-06-16 (33 years ago)
Launch vehicle
Unknown
Launch site
Plesetsk Missile And Space Complex (PKMTR)
Object type
Payload
Rocket body
Debris
Shape & HBR
Unknown shape, 0.1 m
Radar Cross Section
Small (<0.1 m²)

Expand to show TLE details & history
Last TLE update: 2 days ago

TLE from 2 days ago
0 COSMOS 2251 DEB
1 34571U 93036VH  26174.09248776  .00004124  00000-0  99763-3 0  9992
2 34571  74.0378 180.7910 0060454 172.5531 187.6543 14.52264794900838
Epoch: 2026-06-23T02:13Z
TLE epoch observation values (Epoch: 2026-06-23T02:13:10.942Z)
Latitude
-0.00009°
Longitude
-123.77363°
Altitude
763.422 km
Speed
7.45 km/s
True Right ascension
12h 03m 09s
True Declination
0° 00' 00"
Sunlit
Object was in daylight at epoch
Visualization orbit readout
Latitude
Unknown
Longitude
Unknown
Altitude
Unknown
Speed
Unknown
Apparent Right ascension
Unknown
Apparent Declination
Unknown
Sunlit
N/A
Visualization observer readout
Local Sidereal Time
11:04:01
Azimuth
Unknown
Elevation
Unknown
Doppler factor
Unknown
Orbital elements
Apogee altitude
758.753 km
Perigee altitude
672.981 km
Semi-major axis
7,094.004 km
Eccentricity
0.00605
Inclination
74.0378°
RAAN
180.791°
Arg. of periapsis
172.5531°
True anomaly
187.56271°
Mean anomaly
187.6543°
Eccentric anomaly
187.60844°
Mean motion
3.6325 °/min
Orbital period
99.11 mins
BSTAR
0.00099763

Documentation

Showing up to 5 results
|